| time (UTC) | temp C | wind direction | speed KPH | gust KPH | rain 1hr cm | rain 24hr cm | rain mn cm | humidity % | barometer mb |
| 20260505070104 | 5 | 249 | 6.4 | 16.1 | 0.00 | 0.23 | 0.00 | 84 | 1008.9 |
| 20260505064605 | 6 | 265 | 6.4 | 20.9 | 0.00 | 0.33 | 0.00 | 84 | 1008.7 |
| 20260505063100 | 6 | 261 | 6.4 | 16.1 | 0.00 | 0.33 | 0.00 | 83 | 1008.4 |
| 20260505061557 | 6 | 250 | 6.4 | 16.1 | 0.00 | 0.33 | 0.00 | 84 | 1008.1 |
| 20260505060100 | 6 | 243 | 3.2 | 11.3 | 0.00 | 0.33 | 0.00 | 83 | 1007.9 |
| 20260505054551 | 6 | 238 | 1.6 | 11.3 | 0.00 | 0.33 | 0.00 | 83 | 1007.4 |
| 20260505053045 | 6 | 235 | 6.4 | 16.1 | 0.00 | 0.33 | 0.00 | 83 | 1007.1 |
| 20260505051542 | 6 | 235 | 6.4 | 17.7 | 0.00 | 0.33 | 0.00 | 82 | 1006.8 |
| 20260505041536 | 7 | 229 | 11.3 | 20.9 | 0.00 | 0.43 | 0.00 | 79 | 1006.0 |
| 20260505040027 | 7 | 206 | 8.0 | 19.3 | 0.00 | 0.43 | 0.00 | 78 | 1005.8 |
| 20260505034524 | 7 | 234 | 8.0 | 19.3 | 0.00 | 0.43 | 0.00 | 77 | 1005.7 |
| 20260505033022 | 7 | 252 | 8.0 | 22.5 | 0.00 | 0.43 | 0.00 | 76 | 1005.5 |
| 20260505031519 | 7 | 235 | 8.0 | 25.7 | 0.00 | 0.43 | 0.00 | 76 | 1005.2 |
| 20260505030015 | 8 | 224 | 11.3 | 20.9 | 0.00 | 0.43 | 0.00 | 75 | 1004.8 |
| 20260505024514 | 7 | 226 | 8.0 | 17.7 | 0.00 | 0.43 | 0.43 | 75 | 1004.7 |
| 20260505023013 | 8 | 228 | 9.7 | 19.3 | 0.00 | 0.43 | 0.43 | 74 | 1004.6 |
| 20260505021512 | 7 | 215 | 6.4 | 20.9 | 0.00 | 0.43 | 0.43 | 74 | 1004.5 |
| 20260505020010 | 7 | 213 | 9.7 | 27.4 | 0.00 | 0.43 | 0.43 | 73 | 1004.3 |
| 20260505014518 | 7 | 246 | 9.7 | 17.7 | 0.00 | 0.46 | 0.43 | 74 | 1004.2 |
| 20260505013009 | 7 | 255 | 8.0 | 22.5 | 0.00 | 0.46 | 0.43 | 74 | 1004.3 |
| 20260505011507 | 7 | 242 | 11.3 | 19.3 | 0.00 | 0.46 | 0.43 | 73 | 1004.1 |
| 20260505010007 | 8 | 225 | 11.3 | 20.9 | 0.00 | 0.46 | 0.43 | 71 | 1004.0 |
| 20260505004508 | 10 | 227 | 9.7 | 19.3 | 0.00 | 0.61 | 0.43 | 69 | 1003.9 |
| 20260505003006 | 10 | 250 | 11.3 | 27.4 | 0.00 | 0.61 | 0.43 | 68 | 1003.9 |
| 20260505001504 | 10 | 238 | 11.3 | 22.5 | 0.00 | 0.61 | 0.43 | 64 | 1003.6 |
| 20260505000007 | 8 | 263 | 12.9 | 22.5 | 0.00 | 0.97 | 0.43 | 66 | 1003.5 |
| 20260504234501 | 7 | 215 | 6.4 | 12.9 | 0.00 | 0.97 | 0.43 | 70 | 1003.0 |
| 20260504233102 | 7 | 219 | 6.4 | 17.7 | 0.00 | 0.97 | 0.43 | 70 | 1002.8 |
| 20260504231557 | 7 | 232 | 6.4 | 20.9 | 0.00 | 0.97 | 0.43 | 69 | 1002.7 |
| 20260504230055 | 8 | 213 | 9.7 | 17.7 | 0.00 | 0.97 | 0.43 | 67 | 1002.5 |
| 20260504224554 | 8 | 247 | 8.0 | 27.4 | 0.00 | 1.45 | 0.43 | 65 | 1002.3 |
| 20260504223109 | 9 | 241 | 9.7 | 20.9 | 0.00 | 1.45 | 0.43 | 64 | 1002.4 |
| 20260504221552 | 10 | 271 | 9.7 | 20.9 | 0.00 | 1.45 | 0.43 | 62 | 1002.0 |
| 20260504220050 | 10 | 232 | 9.7 | 24.1 | 0.00 | 1.45 | 0.43 | 61 | 1002.0 |
| 20260504214549 | 11 | 211 | 6.4 | 22.5 | 0.00 | 1.85 | 0.43 | 60 | 1001.8 |
| 20260504213048 | 11 | 215 | 8.0 | 25.7 | 0.00 | 1.85 | 0.43 | 57 | 1001.6 |
| 20260504211626 | 11 | 270 | 11.3 | 22.5 | 0.00 | 1.85 | 0.43 | 55 | 1001.6 |
| 20260504210050 | 11 | 261 | 14.5 | 25.7 | 0.00 | 1.85 | 0.43 | 55 | 1001.4 |
| 20260504204544 | 11 | 256 | 8.0 | 32.2 | 0.00 | 2.06 | 0.43 | 57 | 1001.4 |
| 20260504203044 | 11 | 256 | 12.9 | 24.1 | 0.00 | 2.06 | 0.43 | 56 | 1001.1 |
| 20260504201540 | 11 | 254 | 16.1 | 38.6 | 0.00 | 2.06 | 0.43 | 58 | 1000.7 |
| 20260504200038 | 11 | 257 | 14.5 | 37.0 | 0.00 | 2.06 | 0.43 | 58 | 1000.6 |
| 20260504194539 | 11 | 287 | 9.7 | 40.2 | 0.00 | 2.08 | 0.43 | 62 | 1000.2 |
| 20260504193035 | 11 | 263 | 14.5 | 27.4 | 0.00 | 2.08 | 0.43 | 64 | 999.9 |
| 20260504191535 | 11 | 250 | 14.5 | 35.4 | 0.00 | 2.08 | 0.43 | 67 | 999.5 |
| 20260504190029 | 11 | 233 | 11.3 | 38.6 | 0.00 | 2.08 | 0.43 | 70 | 999.2 |
| 20260504184541 | 11 | 257 | 16.1 | 49.9 | 0.00 | 2.13 | 0.43 | 69 | 999.0 |
| 20260504183023 | 10 | 272 | 8.0 | 32.2 | 0.00 | 2.13 | 0.43 | 75 | 998.8 |
| 20260504181521 | 10 | 338 | 11.3 | 32.2 | 0.00 | 2.13 | 0.43 | 77 | 998.9 |
| 20260504180017 | 8 | 234 | 9.7 | 32.2 | 0.00 | 2.13 | 0.43 | 81 | 998.5 |
| 20260504174514 | 7 | 261 | 11.3 | 33.8 | 0.00 | 2.13 | 0.43 | 81 | 998.4 |
| 20260504173011 | 7 | 246 | 9.7 | 35.4 | 0.00 | 2.13 | 0.43 | 83 | 998.1 |
| 20260504171508 | 7 | 257 | 12.9 | 37.0 | 0.00 | 2.13 | 0.43 | 84 | 997.8 |
| 20260504081543 | 2 | 224 | 16.1 | 32.2 | 0.03 | 1.96 | 0.23 | 92 | 978.5 |